START_TIME,STEP,MOV.,AL01,t_acc.,AL02,t_acc.,E37,t_acc.,H21,t_acc.
1979-07-20 03:00:34.100 ,1,0,1.,24.0,0.,24.0,1.,24.0,0.,24.0
1979-07-20 03:00:58.100 ,2,1,1.,24.0,1.,24.0,0.,24.0,0.,24.0
1979-07-20 03:01:22.100 ,2,0,1.,24.0,0.,24.0,0.,24.0,0.,24.0
1979-07-20 03:01:46.100 ,3,1,0.,24.0,1.,24.0,0.,24.0,0.,24.0
1979-07-20 03:02:10.100 ,3,0,0.,24.0,1.,24.0,0.,24.0,0.,24.0
1979-07-20 03:02:34.100 ,4,1,1.,24.0,0.,24.0,0.,24.0,0.,24.0
1979-07-20 03:02:58.100 ,4,0,0.,24.0,0.,24.0,0.,24.0,0.,24.0
1979-07-20 03:03:22.100 ,5,1,0.,24.0,0.,24.0,2.,24.0,0.,24.0
1979-07-20 03:03:46.100 ,5,0,1.,24.0,0.,24.0,0.,24.0,0.,24.0
1979-07-20 03:04:10.100 ,6,1,0.,24.0,0.,24.0,0.,24.0,0.,24.0
1979-07-20 03:04:34.100 ,6,0,1.,24.0,1.,24.0,1.,24.0,0.,24.0
1979-07-20 03:04:58.100 ,7,1,8.,24.0,0.,24.0,0.,24.0,0.,24.0
1979-07-20 03:05:22.100 ,7,0,30.,24.0,0.,24.0,1.,24.0,0.,24.0
1979-07-20 03:05:46.100 ,7,1,28.,24.0,0.,24.0,1.,24.0,0.,24.0
1979-07-20 03:06:10.100 ,7,0,35.,24.0,0.,24.0,0.,24.0,0.,24.0
1979-07-20 03:06:34.100 ,6,1,31.,24.0,0.,24.0,0.,24.0,0.,24.0
1979-07-20 03:06:58.100 ,6,0,0.,24.0,0.,24.0,0.,24.0,0.,24.0
1979-07-20 03:07:22.100 ,5,1,0.,24.0,0.,24.0,0.,24.0,0.,24.0
1979-07-20 03:07:46.100 ,5,0,0.,24.0,0.,24.0,0.,24.0,0.,24.0
1979-07-20 03:08:10.100 ,4,1,0.,24.0,0.,24.0,0.,24.0,0.,24.0
1979-07-20 03:08:34.100 ,4,0,1.,24.0,0.,24.0,0.,24.0,0.,24.0
1979-07-20 03:08:58.100 ,3,1,0.,24.0,0.,24.0,0.,24.0,0.,24.0
1979-07-20 03:09:22.100 ,3,0,0.,24.0,0.,24.0,1.,24.0,0.,24.0
1979-07-20 03:09:46.100 ,2,1,0.,24.0,0.,24.0,0.,24.0,0.,24.0
1979-07-20 03:10:10.100 ,2,0,0.,24.0,0.,24.0,0.,24.0,0.,24.0
1979-07-20 03:10:34.100 ,1,1,0.,24.0,0.,24.0,1.,24.0,0.,24.0
1979-07-20 03:10:58.100 ,1,0,0.,24.0,0.,24.0,0.,24.0,0.,24.0
1979-07-20 03:11:22.100 ,0,1,1.,24.0,0.,24.0,1.,24.0,0.,24.0
1979-07-20 03:11:46.100 ,0,0,0.,24.0,0.,24.0,0.,24.0,0.,24.0
1979-07-20 03:12:10.100 ,0,1,0.,24.0,0.,24.0,0.,24.0,0.,24.0
1979-07-20 03:12:34.100 ,0,0,0.,24.0,0.,24.0,0.,24.0,0.,24.0
1979-07-20 03:12:58.100 ,0,0,0.,24.0,0.,24.0,0.,24.0,0.,24.0
1979-07-20 03:13:22.100 ,0,0,0.,24.0,0.,24.0,0.,24.0,0.,24.0
1979-07-20 03:13:46.100 ,2,1,1.,24.0,0.,24.0,0.,24.0,0.,24.0
1979-07-20 03:14:10.100 ,2,0,0.,24.0,0.,24.0,0.,24.0,0.,24.0
1979-07-20 03:14:34.100 ,3,1,0.,24.0,0.,24.0,0.,24.0,0.,24.0
1979-07-20 03:14:58.100 ,3,0,0.,24.0,0.,24.0,0.,24.0,0.,24.0
1979-07-20 03:15:22.100 ,4,1,0.,24.0,0.,24.0,1.,24.0,0.,24.0
1979-07-20 03:15:46.100 ,4,0,0.,24.0,0.,24.0,0.,24.0,0.,24.0
1979-07-20 03:16:10.100 ,5,1,0.,24.0,0.,24.0,0.,24.0,0.,24.0
1979-07-20 03:16:34.100 ,5,0,0.,24.0,0.,24.0,1.,24.0,0.,24.0
1979-07-20 03:16:58.100 ,6,1,0.,24.0,2.,24.0,0.,24.0,0.,24.0
1979-07-20 03:17:22.100 ,6,0,0.,24.0,0.,24.0,1.,24.0,0.,24.0
1979-07-20 03:17:46.100 ,7,1,9.,24.0,0.,24.0,0.,24.0,0.,24.0
1979-07-20 03:18:10.100 ,7,0,36.,24.0,0.,24.0,1.,24.0,0.,24.0
1979-07-20 03:18:34.100 ,7,1,25.,24.0,0.,24.0,0.,24.0,0.,24.0
1979-07-20 03:18:58.100 ,7,0,26.,24.0,0.,24.0,0.,24.0,0.,24.0
1979-07-20 03:19:22.100 ,0,0,18.,24.0,0.,24.0,0.,24.0,0.,24.0
1979-07-20 03:19:46.100 ,0,0,1.,24.0,0.,24.0,0.,24.0,0.,24.0
1979-07-20 03:20:10.100 ,5,1,0.,24.0,0.,24.0,1.,24.0,0.,24.0
1979-07-20 03:20:34.100 ,5,0,0.,24.0,0.,24.0,1.,24.0,0.,24.0
1979-07-20 03:20:58.100 ,4,1,0.,24.0,1.,24.0,0.,24.0,0.,24.0
1979-07-20 03:21:22.100 ,4,0,0.,24.0,0.,24.0,0.,24.0,0.,24.0
1979-07-20 03:21:46.100 ,3,1,0.,24.0,0.,24.0,0.,24.0,0.,24.0
1979-07-20 03:22:10.100 ,3,0,0.,24.0,0.,24.0,0.,24.0,0.,24.0
1979-07-20 03:22:34.100 ,2,1,0.,24.0,0.,24.0,1.,24.0,0.,24.0
1979-07-20 03:22:58.100 ,2,0,0.,24.0,0.,24.0,0.,24.0,0.,24.0
1979-07-20 03:23:22.100 ,1,1,0.,24.0,0.,24.0,0.,24.0,0.,24.0
1979-07-20 03:23:46.100 ,1,0,0.,24.0,1.,24.0,0.,24.0,0.,24.0
1979-07-20 03:24:10.100 ,0,1,0.,24.0,0.,24.0,1.,24.0,0.,24.0
1979-07-20 03:24:34.100 ,0,0,0.,24.0,0.,24.0,1.,24.0,0.,24.0
1979-07-20 03:24:58.100 ,0,1,0.,24.0,0.,24.0,1.,24.0,0.,24.0
1979-07-20 03:25:22.100 ,0,0,1.,24.0,0.,24.0,1.,24.0,0.,24.0
1979-07-20 03:25:46.100 ,1,1,0.,24.0,0.,24.0,0.,24.0,0.,24.0
1979-07-20 03:26:10.100 ,1,0,0.,24.0,0.,24.0,0.,24.0,0.,24.0
1979-07-20 03:26:34.100 ,2,1,0.,24.0,0.,24.0,0.,24.0,0.,24.0
1979-07-20 03:26:58.100 ,2,0,0.,24.0,0.,24.0,0.,24.0,0.,24.0
1979-07-20 03:27:22.100 ,3,1,0.,24.0,0.,24.0,0.,24.0,0.,24.0
1979-07-20 03:27:46.100 ,3,0,0.,24.0,0.,24.0,0.,24.0,0.,24.0
1979-07-20 03:28:10.100 ,4,1,1.,24.0,0.,24.0,0.,24.0,0.,24.0
1979-07-20 03:28:34.100 ,4,0,0.,24.0,0.,24.0,1.,24.0,0.,24.0
1979-07-20 03:28:58.100 ,5,1,0.,24.0,0.,24.0,0.,24.0,0.,24.0
1979-07-20 03:29:22.100 ,5,0,0.,24.0,0.,24.0,0.,24.0,0.,24.0
1979-07-20 03:29:46.100 ,6,1,1.,24.0,0.,24.0,0.,24.0,0.,24.0
1979-07-20 03:30:10.100 ,6,0,0.,24.0,0.,24.0,0.,24.0,0.,24.0
1979-07-20 03:30:34.100 ,7,0,4.,24.0,0.,24.0,0.,24.0,0.,24.0
1979-07-20 03:30:58.100 ,7,0,27.,24.0,0.,24.0,0.,24.0,0.,24.0
1979-07-20 03:31:22.100 ,5,1,10.,24.0,0.,24.0,0.,24.0,0.,24.0
1979-07-20 03:31:46.100 ,1,1,0.,24.0,0.,24.0,0.,24.0,0.,24.0
1979-07-20 03:32:10.100 ,2,1,0.,24.0,0.,24.0,0.,24.0,0.,24.0
1979-07-20 03:32:34.100 ,6,1,0.,24.0,0.,24.0,0.,24.0,0.,24.0
1979-07-20 03:32:58.100 ,5,1,13.,24.0,0.,24.0,0.,24.0,0.,24.0
1979-07-20 03:33:22.100 ,1,1,0.,24.0,0.,24.0,0.,24.0,0.,24.0
1979-07-20 03:33:46.100 ,2,1,0.,24.0,0.,24.0,0.,24.0,0.,24.0
1979-07-20 03:34:10.100 ,6,1,0.,24.0,0.,24.0,0.,24.0,0.,24.0
1979-07-20 03:34:34.100 ,5,1,14.,24.0,0.,24.0,0.,24.0,0.,24.0
1979-07-20 03:34:58.100 ,1,1,0.,24.0,1.,24.0,0.,24.0,0.,24.0
1979-07-20 03:35:22.100 ,2,1,1.,24.0,0.,24.0,0.,24.0,0.,24.0
1979-07-20 03:35:46.100 ,6,1,0.,24.0,0.,24.0,0.,24.0,0.,24.0
1979-07-20 03:36:10.100 ,5,1,14.,24.0,0.,24.0,0.,24.0,0.,24.0
1979-07-20 03:36:34.100 ,1,1,0.,24.0,0.,24.0,0.,24.0,0.,24.0
1979-07-20 03:36:58.100 ,2,1,0.,24.0,1.,24.0,0.,24.0,0.,24.0
1979-07-20 03:37:22.100 ,6,1,0.,24.0,0.,24.0,0.,24.0,0.,24.0
1979-07-20 03:37:46.100 ,5,1,18.,24.0,0.,24.0,0.,24.0,0.,24.0
1979-07-20 03:38:10.100 ,1,1,1.,24.0,0.,24.0,0.,24.0,0.,24.0
1979-07-20 03:39:22.100 ,0,0,15.,24.0,0.,24.0,0.,24.0,0.,24.0
1979-07-20 03:39:46.100 ,1,1,1.,24.0,1.,24.0,0.,24.0,0.,24.0
1979-07-20 03:40:10.100 ,2,1,0.,24.0,0.,24.0,0.,24.0,0.,24.0
1979-07-20 03:40:34.100 ,6,1,0.,24.0,0.,24.0,0.,24.0,0.,24.0
1979-07-20 03:40:34.100 ,6,1,0.,24.0,0.,24.0,0.,24.0,0.,24.0
1979-07-20 03:40:58.100 ,5,1,16.,24.0,0.,24.0,0.,24.0,0.,24.0
1979-07-20 03:41:22.100 ,1,1,0.,24.0,0.,24.0,0.,24.0,0.,24.0
1979-07-20 03:41:46.100 ,0,0,0.,24.0,0.,24.0,0.,24.0,0.,24.0
1979-07-20 03:42:10.100 ,0,0,0.,24.0,0.,24.0,0.,24.0,0.,24.0
1979-07-20 03:42:34.100 ,0,0,21.,24.0,0.,24.0,0.,24.0,0.,24.0
1979-07-20 03:42:58.100 ,0,0,0.,24.0,0.,24.0,0.,24.0,0.,24.0
1979-07-20 03:43:22.100 ,4,1,1.,24.0,0.,24.0,0.,24.0,0.,24.0
1979-07-20 03:43:46.100 ,4,0,0.,24.0,0.,24.0,0.,24.0,0.,24.0
1979-07-20 03:44:10.100 ,3,1,2.,24.0,1.,24.0,0.,24.0,0.,24.0
1979-07-20 03:44:34.100 ,3,0,0.,24.0,0.,24.0,0.,24.0,0.,24.0
1979-07-20 03:44:58.100 ,2,1,1.,24.0,0.,24.0,0.,24.0,0.,24.0
1979-07-20 03:45:22.100 ,2,0,0.,24.0,0.,24.0,1.,24.0,0.,24.0
1979-07-20 03:45:46.100 ,1,1,1.,24.0,0.,24.0,0.,24.0,0.,24.0
1979-07-20 03:46:10.100 ,1,0,1.,24.0,0.,24.0,0.,24.0,0.,24.0
1979-07-20 03:46:34.100 ,0,1,0.,24.0,0.,24.0,0.,24.0,0.,24.0
1979-07-20 03:46:58.100 ,0,0,0.,24.0,0.,24.0,0.,24.0,0.,24.0
1979-07-20 03:47:22.100 ,0,1,0.,24.0,0.,24.0,0.,24.0,0.,24.0
1979-07-20 03:47:46.100 ,0,0,0.,24.0,0.,24.0,0.,24.0,0.,24.0
1979-07-20 03:48:10.100 ,1,1,0.,24.0,0.,24.0,0.,24.0,0.,24.0
1979-07-20 03:48:34.100 ,1,0,1.,24.0,0.,24.0,0.,24.0,0.,24.0
1979-07-20 03:48:58.100 ,2,1,0.,24.0,0.,24.0,0.,24.0,0.,24.0
1979-07-20 03:49:22.100 ,2,0,0.,24.0,0.,24.0,0.,24.0,0.,24.0
1979-07-20 03:49:46.100 ,3,1,0.,24.0,0.,24.0,0.,24.0,0.,24.0
1979-07-20 03:50:10.100 ,3,0,0.,24.0,0.,24.0,1.,24.0,0.,24.0
1979-07-20 03:50:34.100 ,4,1,0.,24.0,1.,24.0,0.,24.0,0.,24.0
1979-07-20 03:50:58.100 ,4,0,1.,24.0,0.,24.0,1.,24.0,0.,24.0
1979-07-20 03:51:22.100 ,5,1,0.,24.0,0.,24.0,0.,24.0,0.,24.0
1979-07-20 03:51:46.100 ,5,0,0.,24.0,0.,24.0,0.,24.0,0.,24.0
1979-07-20 03:52:10.100 ,6,1,0.,24.0,0.,24.0,1.,24.0,0.,24.0
1979-07-20 03:52:34.100 ,6,0,0.,24.0,0.,24.0,0.,24.0,0.,24.0
1979-07-20 03:52:58.100 ,7,1,7.,24.0,1.,24.0,0.,24.0,0.,24.0
1979-07-20 03:53:22.100 ,7,0,34.,24.0,0.,24.0,0.,24.0,0.,24.0
1979-07-20 03:53:46.100 ,7,1,24.,24.0,0.,24.0,0.,24.0,0.,24.0
1979-07-20 03:54:10.100 ,7,0,25.,24.0,0.,24.0,0.,24.0,0.,24.0
1979-07-20 03:54:34.100 ,6,1,21.,24.0,0.,24.0,0.,24.0,0.,24.0
1979-07-20 03:54:58.100 ,6,0,0.,24.0,0.,24.0,0.,24.0,0.,24.0
1979-07-20 03:55:22.100 ,5,1,2.,24.0,0.,24.0,0.,24.0,0.,24.0
1979-07-20 03:55:46.100 ,5,0,0.,24.0,0.,24.0,0.,24.0,0.,24.0
1979-07-20 03:56:10.100 ,4,1,1.,24.0,0.,24.0,1.,24.0,0.,24.0
1979-07-20 03:56:34.100 ,4,0,1.,24.0,0.,24.0,0.,24.0,0.,24.0
1979-07-20 03:56:58.100 ,3,1,0.,24.0,0.,24.0,0.,24.0,0.,24.0
1979-07-20 03:57:22.100 ,3,0,0.,24.0,0.,24.0,2.,24.0,0.,24.0
1979-07-20 03:57:46.100 ,2,1,0.,24.0,0.,24.0,0.,24.0,0.,24.0
1979-07-20 03:58:10.100 ,2,0,0.,24.0,0.,24.0,0.,24.0,0.,24.0
1979-07-20 03:58:34.100 ,1,1,0.,24.0,0.,24.0,0.,24.0,0.,24.0
1979-07-20 03:58:58.100 ,1,0,0.,24.0,0.,24.0,0.,24.0,0.,24.0
1979-07-20 03:59:22.100 ,0,1,0.,24.0,0.,24.0,1.,24.0,0.,24.0
1979-07-20 03:59:46.100 ,0,0,0.,24.0,0.,24.0,0.,24.0,0.,24.0
1979-07-20 04:00:10.100 ,0,1,1.,24.0,0.,24.0,1.,24.0,0.,24.0
1979-07-20 04:00:34.100 ,0,0,1.,24.0,0.,24.0,1.,24.0,0.,24.0
1979-07-20 04:00:58.100 ,1,1,0.,24.0,1.,24.0,0.,24.0,0.,24.0
1979-07-20 04:01:22.100 ,1,0,0.,24.0,0.,24.0,0.,24.0,0.,24.0
1979-07-20 04:01:46.100 ,2,1,0.,24.0,0.,24.0,1.,24.0,0.,24.0
1979-07-20 04:02:10.100 ,2,0,0.,24.0,0.,24.0,0.,24.0,0.,24.0
1979-07-20 04:02:34.100 ,3,1,0.,24.0,0.,24.0,1.,24.0,0.,24.0
1979-07-20 04:02:58.100 ,3,0,0.,24.0,1.,24.0,0.,24.0,0.,24.0
1979-07-20 04:03:22.100 ,4,1,0.,24.0,0.,24.0,0.,24.0,0.,24.0
1979-07-20 04:03:46.100 ,4,0,0.,24.0,0.,24.0,0.,24.0,0.,24.0
1979-07-20 04:04:10.100 ,5,1,0.,24.0,0.,24.0,1.,24.0,0.,24.0
1979-07-20 04:04:34.100 ,5,0,0.,24.0,0.,24.0,0.,24.0,0.,24.0
1979-07-20 04:04:58.100 ,6,1,0.,24.0,0.,24.0,0.,24.0,0.,24.0
1979-07-20 04:05:22.100 ,6,0,0.,24.0,0.,24.0,0.,24.0,0.,24.0
1979-07-20 04:05:46.100 ,7,1,8.,24.0,1.,24.0,0.,24.0,0.,24.0
1979-07-20 04:06:10.100 ,7,0,32.,24.0,0.,24.0,0.,24.0,0.,24.0
1979-07-20 04:06:34.100 ,7,1,29.,24.0,0.,24.0,0.,24.0,0.,24.0
1979-07-20 04:06:58.100 ,7,0,23.,24.0,0.,24.0,0.,24.0,0.,24.0
1979-07-20 04:07:22.100 ,6,1,19.,24.0,0.,24.0,0.,24.0,0.,24.0
1979-07-20 04:07:46.100 ,6,0,0.,24.0,0.,24.0,0.,24.0,0.,24.0
1979-07-20 04:08:10.100 ,5,1,0.,24.0,0.,24.0,1.,24.0,0.,24.0
1979-07-20 04:08:34.100 ,5,0,1.,24.0,0.,24.0,0.,24.0,0.,24.0
1979-07-20 04:08:58.100 ,4,1,0.,24.0,0.,24.0,0.,24.0,0.,24.0
1979-07-20 04:09:22.100 ,4,0,0.,24.0,0.,24.0,0.,24.0,0.,24.0
1979-07-20 04:09:46.100 ,3,1,0.,24.0,0.,24.0,0.,24.0,0.,24.0
1979-07-20 04:10:10.100 ,3,0,0.,24.0,0.,24.0,0.,24.0,0.,24.0
1979-07-20 04:10:34.100 ,2,1,1.,24.0,0.,24.0,0.,24.0,0.,24.0
1979-07-20 04:10:58.100 ,2,0,0.,24.0,0.,24.0,0.,24.0,0.,24.0
1979-07-20 04:11:22.100 ,1,1,0.,24.0,0.,24.0,1.,24.0,0.,24.0
1979-07-20 04:11:46.100 ,1,0,0.,24.0,0.,24.0,0.,24.0,0.,24.0
1979-07-20 04:12:10.100 ,0,1,2.,24.0,0.,24.0,0.,24.0,0.,24.0
1979-07-20 04:12:34.100 ,0,0,0.,24.0,0.,24.0,0.,24.0,0.,24.0
1979-07-20 04:12:58.100 ,0,1,1.,24.0,0.,24.0,1.,24.0,0.,24.0
1979-07-20 04:13:22.100 ,0,0,1.,24.0,0.,24.0,2.,24.0,0.,24.0
1979-07-20 04:13:46.100 ,1,1,0.,24.0,0.,24.0,0.,24.0,0.,24.0
1979-07-20 04:14:10.100 ,1,0,2.,24.0,0.,24.0,0.,24.0,0.,24.0
1979-07-20 04:14:34.100 ,2,1,2.,24.0,0.,24.0,0.,24.0,0.,24.0
1979-07-20 04:14:58.100 ,2,0,0.,24.0,0.,24.0,0.,24.0,0.,24.0
1979-07-20 04:15:22.100 ,3,1,1.,24.0,1.,24.0,0.,24.0,0.,24.0
1979-07-20 04:15:46.100 ,3,0,1.,24.0,0.,24.0,0.,24.0,0.,24.0
1979-07-20 04:16:10.100 ,4,1,0.,24.0,0.,24.0,0.,24.0,0.,24.0
1979-07-20 04:16:34.100 ,4,0,0.,24.0,1.,24.0,0.,24.0,0.,24.0
1979-07-20 04:16:58.100 ,5,1,0.,24.0,0.,24.0,1.,24.0,0.,24.0
1979-07-20 04:17:22.100 ,5,0,0.,24.0,0.,24.0,0.,24.0,0.,24.0
1979-07-20 04:17:46.100 ,6,1,0.,24.0,0.,24.0,0.,24.0,0.,24.0
1979-07-20 04:18:10.100 ,6,0,1.,24.0,1.,24.0,0.,24.0,0.,24.0
1979-07-20 04:18:34.100 ,7,0,6.,24.0,0.,24.0,0.,24.0,0.,24.0
1979-07-20 04:18:58.100 ,7,0,33.,24.0,0.,24.0,0.,24.0,0.,24.0
1979-07-20 04:19:22.100 ,5,1,12.,24.0,0.,24.0,0.,24.0,0.,24.0
1979-07-20 04:19:46.100 ,1,1,0.,24.0,0.,24.0,0.,24.0,0.,24.0
1979-07-20 04:20:10.100 ,2,1,1.,24.0,0.,24.0,0.,24.0,0.,24.0
1979-07-20 04:20:34.100 ,6,1,0.,24.0,0.,24.0,0.,24.0,0.,24.0
1979-07-20 04:20:58.100 ,5,1,11.,24.0,0.,24.0,1.,24.0,0.,24.0
1979-07-20 04:21:22.100 ,1,1,0.,24.0,0.,24.0,0.,24.0,0.,24.0
1979-07-20 04:21:46.100 ,2,1,0.,24.0,0.,24.0,0.,24.0,0.,24.0
1979-07-20 04:22:10.100 ,6,1,0.,24.0,0.,24.0,0.,24.0,0.,24.0
1979-07-20 04:22:34.100 ,5,1,20.,24.0,0.,24.0,1.,24.0,0.,24.0
1979-07-20 04:22:58.100 ,1,1,0.,24.0,0.,24.0,0.,24.0,0.,24.0
1979-07-20 04:23:22.100 ,2,1,0.,24.0,1.,24.0,0.,24.0,0.,24.0
1979-07-20 04:23:46.100 ,6,1,0.,24.0,0.,24.0,0.,24.0,0.,24.0
1979-07-20 04:24:10.100 ,5,1,19.,24.0,0.,24.0,0.,24.0,0.,24.0
1979-07-20 04:24:34.100 ,1,1,1.,24.0,0.,24.0,0.,24.0,0.,24.0
1979-07-20 04:24:58.100 ,2,1,0.,24.0,0.,24.0,0.,24.0,0.,24.0
1979-07-20 04:25:22.100 ,6,1,0.,24.0,0.,24.0,0.,24.0,0.,24.0
1979-07-20 04:25:46.100 ,5,1,16.,24.0,0.,24.0,1.,24.0,0.,24.0
1979-07-20 04:26:10.100 ,1,1,0.,24.0,0.,24.0,0.,24.0,0.,24.0
1979-07-20 04:26:34.100 ,2,1,1.,24.0,0.,24.0,0.,24.0,0.,24.0
1979-07-20 04:26:58.100 ,6,1,1.,24.0,0.,24.0,0.,24.0,0.,24.0
1979-07-20 04:27:22.100 ,5,1,12.,24.0,0.,24.0,1.,24.0,0.,24.0
1979-07-20 04:27:46.100 ,1,1,0.,24.0,1.,24.0,1.,24.0,0.,24.0
1979-07-20 04:28:10.100 ,2,1,0.,24.0,1.,24.0,0.,24.0,0.,24.0
1979-07-20 04:28:34.100 ,6,1,0.,24.0,1.,24.0,0.,24.0,0.,24.0
1979-07-20 04:28:58.100 ,5,1,16.,24.0,0.,24.0,0.,24.0,0.,24.0
1979-07-20 04:29:22.100 ,1,1,0.,24.0,0.,24.0,0.,24.0,0.,24.0
1979-07-20 04:29:46.100 ,0,0,0.,24.0,0.,24.0,0.,24.0,0.,24.0
1979-07-20 04:30:10.100 ,0,0,0.,24.0,1.,24.0,0.,24.0,0.,24.0
1979-07-20 04:30:34.100 ,5,1,12.,24.0,0.,24.0,1.,24.0,0.,24.0
1979-07-20 04:30:58.100 ,5,0,1.,24.0,0.,24.0,0.,24.0,0.,24.0
1979-07-20 04:31:22.100 ,4,1,1.,24.0,0.,24.0,0.,24.0,0.,24.0
1979-07-20 04:31:46.100 ,4,0,0.,24.0,0.,24.0,1.,24.0,0.,24.0
1979-07-20 04:32:10.100 ,3,1,0.,24.0,1.,24.0,0.,24.0,0.,24.0
1979-07-20 04:32:34.100 ,3,0,0.,24.0,0.,24.0,0.,24.0,0.,24.0
1979-07-20 04:32:58.100 ,2,1,0.,24.0,0.,24.0,0.,24.0,0.,24.0
1979-07-20 04:33:22.100 ,2,0,0.,24.0,0.,24.0,0.,24.0,0.,24.0
1979-07-20 04:33:46.100 ,1,1,0.,24.0,0.,24.0,0.,24.0,0.,24.0
1979-07-20 04:34:10.100 ,1,0,1.,24.0,0.,24.0,0.,24.0,0.,24.0
1979-07-20 04:34:34.100 ,0,1,0.,24.0,0.,24.0,0.,24.0,0.,24.0
1979-07-20 04:34:58.100 ,0,0,0.,24.0,0.,24.0,0.,24.0,0.,24.0
1979-07-20 04:35:22.100 ,0,1,0.,24.0,0.,24.0,0.,24.0,0.,24.0
1979-07-20 04:35:46.100 ,0,0,0.,24.0,0.,24.0,0.,24.0,0.,24.0
1979-07-20 04:36:10.100 ,1,1,0.,24.0,0.,24.0,0.,24.0,0.,24.0
1979-07-20 04:36:34.100 ,1,0,0.,24.0,0.,24.0,0.,24.0,0.,24.0
1979-07-20 04:36:58.100 ,2,1,0.,24.0,0.,24.0,0.,24.0,0.,24.0
1979-07-20 04:37:22.100 ,2,0,0.,24.0,0.,24.0,0.,24.0,0.,24.0
1979-07-20 04:37:46.100 ,3,1,0.,24.0,0.,24.0,0.,24.0,0.,24.0
1979-07-20 04:38:10.100 ,3,0,0.,24.0,0.,24.0,0.,24.0,0.,24.0
1979-07-20 04:38:34.100 ,4,1,0.,24.0,1.,24.0,0.,24.0,0.,24.0
1979-07-20 04:38:58.100 ,4,0,0.,24.0,1.,24.0,0.,24.0,0.,24.0
1979-07-20 04:39:22.100 ,5,1,0.,24.0,0.,24.0,0.,24.0,0.,24.0
1979-07-20 04:39:46.100 ,5,0,0.,24.0,0.,24.0,0.,24.0,0.,24.0
1979-07-20 04:40:10.100 ,6,1,1.,24.0,0.,24.0,0.,24.0,0.,24.0
1979-07-20 04:40:34.100 ,6,0,0.,24.0,0.,24.0,1.,24.0,0.,24.0
1979-07-20 04:40:58.100 ,7,1,1.,24.0,1.,24.0,0.,24.0,0.,24.0
1979-07-20 04:41:22.100 ,7,0,26.,24.0,0.,24.0,0.,24.0,0.,24.0
1979-07-20 04:41:46.100 ,7,1,25.,24.0,0.,24.0,0.,24.0,0.,24.0
1979-07-20 04:42:10.100 ,7,0,42.,24.0,0.,24.0,0.,24.0,0.,24.0
1979-07-20 04:42:34.100 ,6,1,19.,24.0,0.,24.0,0.,24.0,0.,24.0
1979-07-20 04:42:58.100 ,6,0,1.,24.0,0.,24.0,1.,24.0,0.,24.0
1979-07-20 04:43:22.100 ,5,1,0.,24.0,0.,24.0,0.,24.0,0.,24.0
1979-07-20 04:43:46.100 ,5,0,0.,24.0,0.,24.0,0.,24.0,0.,24.0
1979-07-20 04:44:10.100 ,4,1,1.,24.0,0.,24.0,0.,24.0,0.,24.0
1979-07-20 04:44:34.100 ,4,0,0.,24.0,0.,24.0,0.,24.0,0.,24.0
1979-07-20 04:44:58.100 ,3,1,1.,24.0,0.,24.0,0.,24.0,0.,24.0
1979-07-20 04:45:22.100 ,3,0,0.,24.0,0.,24.0,0.,24.0,0.,24.0
1979-07-20 04:45:46.100 ,2,1,0.,24.0,0.,24.0,0.,24.0,0.,24.0
1979-07-20 04:46:10.100 ,2,0,0.,24.0,0.,24.0,0.,24.0,0.,24.0
1979-07-20 04:46:34.100 ,1,1,1.,24.0,0.,24.0,0.,24.0,0.,24.0
1979-07-20 04:46:58.100 ,1,0,1.,24.0,0.,24.0,0.,24.0,0.,24.0
1979-07-20 04:47:22.100 ,0,1,0.,24.0,0.,24.0,0.,24.0,0.,24.0
1979-07-20 04:47:46.100 ,0,0,0.,24.0,1.,24.0,2.,24.0,0.,24.0
1979-07-20 04:48:10.100 ,0,1,1.,24.0,0.,24.0,0.,24.0,0.,24.0
1979-07-20 04:48:34.100 ,0,0,0.,24.0,1.,24.0,0.,24.0,0.,24.0
1979-07-20 04:48:58.100 ,1,1,1.,24.0,0.,24.0,0.,24.0,0.,24.0
1979-07-20 04:49:22.100 ,1,0,0.,24.0,0.,24.0,0.,24.0,0.,24.0
1979-07-20 04:49:46.100 ,2,1,0.,24.0,0.,24.0,1.,24.0,0.,24.0
1979-07-20 04:50:10.100 ,2,0,0.,24.0,0.,24.0,0.,24.0,0.,24.0
1979-07-20 04:50:34.100 ,3,1,0.,24.0,0.,24.0,0.,24.0,0.,24.0
1979-07-20 04:50:58.100 ,3,0,1.,24.0,0.,24.0,0.,24.0,0.,24.0
1979-07-20 04:51:22.100 ,4,1,0.,24.0,0.,24.0,0.,24.0,0.,24.0
1979-07-20 04:51:46.100 ,4,0,0.,24.0,0.,24.0,0.,24.0,0.,24.0
1979-07-20 04:52:10.100 ,5,1,0.,24.0,0.,24.0,0.,24.0,0.,24.0
1979-07-20 04:52:34.100 ,5,0,2.,24.0,0.,24.0,0.,24.0,0.,24.0
1979-07-20 04:52:58.100 ,6,1,0.,24.0,0.,24.0,0.,24.0,0.,24.0
1979-07-20 04:53:22.100 ,6,0,0.,24.0,0.,24.0,0.,24.0,0.,24.0
1979-07-20 04:53:46.100 ,7,1,9.,24.0,0.,24.0,1.,24.0,0.,24.0
1979-07-20 04:54:10.100 ,7,0,24.,24.0,0.,24.0,0.,24.0,0.,24.0
1979-07-20 04:54:34.100 ,7,1,31.,24.0,0.,24.0,0.,24.0,0.,24.0
1979-07-20 04:54:58.100 ,7,0,23.,24.0,0.,24.0,0.,24.0,0.,24.0
1979-07-20 04:55:22.100 ,6,1,23.,24.0,0.,24.0,0.,24.0,0.,24.0
1979-07-20 04:55:46.100 ,6,0,0.,24.0,0.,24.0,0.,24.0,0.,24.0
1979-07-20 04:56:10.100 ,5,1,0.,24.0,0.,24.0,1.,24.0,0.,24.0
1979-07-20 04:56:34.100 ,5,0,2.,24.0,0.,24.0,0.,24.0,0.,24.0
1979-07-20 04:56:58.100 ,4,1,0.,24.0,0.,24.0,0.,24.0,0.,24.0
1979-07-20 04:57:22.100 ,4,0,1.,24.0,0.,24.0,0.,24.0,0.,24.0
1979-07-20 04:57:46.100 ,3,1,0.,24.0,1.,24.0,1.,24.0,0.,24.0
1979-07-20 04:58:10.100 ,3,0,0.,24.0,0.,24.0,1.,24.0,0.,24.0
1979-07-20 04:58:34.100 ,2,1,0.,24.0,1.,24.0,0.,24.0,0.,24.0
1979-07-20 04:58:58.100 ,2,0,0.,24.0,0.,24.0,0.,24.0,0.,24.0
1979-07-20 04:59:22.100 ,1,1,1.,24.0,0.,24.0,0.,24.0,0.,24.0
1979-07-20 04:59:46.100 ,1,0,1.,24.0,0.,24.0,0.,24.0,0.,24.0
1979-07-20 05:00:10.100 ,0,1,0.,24.0,0.,24.0,1.,24.0,0.,24.0
1979-07-20 05:00:34.100 ,0,0,0.,24.0,1.,24.0,0.,24.0,0.,24.0
1979-07-20 05:00:58.100 ,0,1,0.,24.0,0.,24.0,0.,24.0,0.,24.0
1979-07-20 05:01:22.100 ,0,0,0.,24.0,2.,24.0,0.,24.0,0.,24.0
1979-07-20 05:01:46.100 ,1,1,1.,24.0,0.,24.0,0.,24.0,0.,24.0
1979-07-20 05:02:10.100 ,1,0,1.,24.0,0.,24.0,0.,24.0,0.,24.0
1979-07-20 05:02:34.100 ,2,1,1.,24.0,0.,24.0,0.,24.0,0.,24.0
1979-07-20 05:02:58.100 ,2,0,0.,24.0,0.,24.0,2.,24.0,0.,24.0
1979-07-20 05:03:22.100 ,3,1,1.,24.0,0.,24.0,1.,24.0,0.,24.0
1979-07-20 05:03:46.100 ,3,0,0.,24.0,0.,24.0,0.,24.0,0.,24.0
1979-07-20 05:04:10.100 ,4,1,0.,24.0,1.,24.0,0.,24.0,0.,24.0
1979-07-20 05:04:34.100 ,4,0,2.,24.0,1.,24.0,0.,24.0,0.,24.0
1979-07-20 05:04:58.100 ,5,1,0.,24.0,0.,24.0,0.,24.0,0.,24.0
1979-07-20 05:05:22.100 ,5,0,1.,24.0,1.,24.0,0.,24.0,0.,24.0
1979-07-20 05:05:46.100 ,6,1,0.,24.0,0.,24.0,0.,24.0,0.,24.0
1979-07-20 05:06:10.100 ,6,0,0.,24.0,0.,24.0,0.,24.0,0.,24.0
1979-07-20 05:06:34.100 ,7,0,8.,24.0,0.,24.0,0.,24.0,0.,24.0
1979-07-20 05:06:58.100 ,7,0,24.,24.0,0.,24.0,0.,24.0,0.,24.0
1979-07-20 05:07:22.100 ,5,1,13.,24.0,0.,24.0,0.,24.0,0.,24.0
1979-07-20 05:07:46.100 ,1,1,0.,24.0,0.,24.0,1.,24.0,0.,24.0
1979-07-20 05:08:10.100 ,2,1,1.,24.0,0.,24.0,0.,24.0,0.,24.0
1979-07-20 05:08:34.100 ,6,1,0.,24.0,0.,24.0,0.,24.0,0.,24.0
1979-07-20 05:08:58.100 ,5,1,22.,24.0,0.,24.0,0.,24.0,0.,24.0
1979-07-20 05:09:22.100 ,1,1,1.,24.0,0.,24.0,0.,24.0,0.,24.0
1979-07-20 05:09:46.100 ,2,1,0.,24.0,0.,24.0,0.,24.0,0.,24.0
1979-07-20 05:10:10.100 ,6,1,1.,24.0,1.,24.0,0.,24.0,0.,24.0
1979-07-20 05:10:34.100 ,5,1,19.,24.0,0.,24.0,0.,24.0,0.,24.0
1979-07-20 05:10:58.100 ,1,1,0.,24.0,0.,24.0,0.,24.0,0.,24.0
1979-07-20 05:11:22.100 ,2,1,0.,24.0,0.,24.0,0.,24.0,0.,24.0
1979-07-20 05:11:46.100 ,6,1,0.,24.0,0.,24.0,0.,24.0,0.,24.0
1979-07-20 05:12:10.100 ,5,1,16.,24.0,0.,24.0,0.,24.0,0.,24.0
1979-07-20 05:12:34.100 ,1,1,1.,24.0,0.,24.0,0.,24.0,0.,24.0
1979-07-20 05:12:58.100 ,2,1,0.,24.0,0.,24.0,0.,24.0,0.,24.0
1979-07-20 05:13:22.100 ,6,1,1.,24.0,0.,24.0,1.,24.0,0.,24.0
1979-07-20 05:13:46.100 ,5,1,19.,24.0,0.,24.0,1.,24.0,0.,24.0
1979-07-20 05:14:10.100 ,1,1,0.,24.0,0.,24.0,0.,24.0,0.,24.0
1979-07-20 05:14:34.100 ,2,1,0.,24.0,0.,24.0,0.,24.0,0.,24.0
1979-07-20 05:14:58.100 ,6,1,0.,24.0,0.,24.0,0.,24.0,0.,24.0
1979-07-20 05:15:22.100 ,5,1,16.,24.0,0.,24.0,0.,24.0,0.,24.0
1979-07-20 05:15:46.100 ,1,1,0.,24.0,0.,24.0,0.,24.0,0.,24.0
1979-07-20 05:16:10.100 ,2,1,0.,24.0,0.,24.0,0.,24.0,0.,24.0
1979-07-20 05:16:34.100 ,6,1,0.,24.0,0.,24.0,0.,24.0,0.,24.0
1979-07-20 05:16:58.100 ,5,1,14.,24.0,0.,24.0,0.,24.0,0.,24.0
1979-07-20 05:17:22.100 ,1,1,1.,24.0,0.,24.0,0.,24.0,0.,24.0
1979-07-20 05:17:46.100 ,0,0,1.,24.0,0.,24.0,0.,24.0,0.,24.0
1979-07-20 05:18:10.100 ,0,0,0.,24.0,0.,24.0,0.,24.0,0.,24.0
1979-07-20 05:18:34.100 ,5,1,14.,24.0,0.,24.0,0.,24.0,0.,24.0
1979-07-20 05:18:58.100 ,5,0,0.,24.0,2.,24.0,0.,24.0,0.,24.0
1979-07-20 05:19:22.100 ,4,1,0.,24.0,0.,24.0,0.,24.0,0.,24.0
1979-07-20 05:19:46.100 ,4,0,0.,24.0,0.,24.0,0.,24.0,0.,24.0
1979-07-20 05:20:10.100 ,3,1,1.,24.0,0.,24.0,0.,24.0,0.,24.0
1979-07-20 05:20:34.100 ,3,0,0.,24.0,0.,24.0,0.,24.0,0.,24.0
1979-07-20 05:20:58.100 ,2,1,1.,24.0,0.,24.0,0.,24.0,0.,24.0
1979-07-20 05:21:22.100 ,2,0,0.,24.0,0.,24.0,0.,24.0,0.,24.0
1979-07-20 05:21:46.100 ,1,1,1.,24.0,0.,24.0,0.,24.0,0.,24.0
1979-07-20 05:22:10.100 ,1,0,0.,24.0,0.,24.0,0.,24.0,0.,24.0
1979-07-20 05:22:34.100 ,0,1,0.,24.0,1.,24.0,0.,24.0,0.,24.0
1979-07-20 05:22:58.100 ,0,0,1.,24.0,0.,24.0,0.,24.0,0.,24.0
1979-07-20 05:23:22.100 ,0,1,1.,24.0,0.,24.0,0.,24.0,0.,24.0
1979-07-20 05:23:46.100 ,0,0,2.,24.0,0.,24.0,0.,24.0,0.,24.0
1979-07-20 05:24:10.100 ,1,1,0.,24.0,0.,24.0,0.,24.0,0.,24.0
1979-07-20 05:24:34.100 ,1,0,1.,24.0,0.,24.0,0.,24.0,0.,24.0
1979-07-20 05:24:58.100 ,2,1,0.,24.0,0.,24.0,1.,24.0,0.,24.0
1979-07-20 05:25:22.100 ,2,0,0.,24.0,0.,24.0,0.,24.0,0.,24.0
1979-07-20 05:25:46.100 ,3,1,1.,24.0,0.,24.0,0.,24.0,0.,24.0
1979-07-20 05:26:10.100 ,3,0,0.,24.0,0.,24.0,0.,24.0,0.,24.0
1979-07-20 05:26:34.100 ,4,1,1.,24.0,0.,24.0,0.,24.0,0.,24.0
1979-07-20 05:26:58.100 ,4,0,0.,24.0,0.,24.0,0.,24.0,0.,24.0
1979-07-20 05:27:22.100 ,5,1,0.,24.0,0.,24.0,1.,24.0,0.,24.0
1979-07-20 05:27:46.100 ,5,0,0.,24.0,0.,24.0,0.,24.0,0.,24.0
1979-07-20 05:28:10.100 ,6,1,1.,24.0,0.,24.0,2.,24.0,0.,24.0
1979-07-20 05:28:34.100 ,6,0,0.,24.0,0.,24.0,0.,24.0,0.,24.0
1979-07-20 05:28:58.100 ,7,1,9.,24.0,0.,24.0,0.,24.0,0.,24.0
1979-07-20 05:29:22.100 ,7,0,37.,24.0,0.,24.0,0.,24.0,0.,24.0
1979-07-20 05:29:46.100 ,7,1,34.,24.0,0.,24.0,0.,24.0,0.,24.0
1979-07-20 05:30:10.100 ,7,0,26.,24.0,0.,24.0,0.,24.0,0.,24.0
1979-07-20 05:30:34.100 ,6,1,22.,24.0,0.,24.0,1.,24.0,0.,24.0
1979-07-20 05:30:58.100 ,6,0,0.,24.0,1.,24.0,2.,24.0,0.,24.0
1979-07-20 05:31:22.100 ,5,1,1.,24.0,0.,24.0,0.,24.0,0.,24.0
1979-07-20 05:31:46.100 ,5,0,0.,24.0,0.,24.0,0.,24.0,0.,24.0
1979-07-20 05:32:10.100 ,4,1,0.,24.0,0.,24.0,0.,24.0,0.,24.0
1979-07-20 05:32:34.100 ,4,0,2.,24.0,0.,24.0,1.,24.0,0.,24.0
1979-07-20 05:32:58.100 ,3,1,0.,24.0,0.,24.0,0.,24.0,0.,24.0
1979-07-20 05:33:22.100 ,3,0,1.,24.0,0.,24.0,0.,24.0,0.,24.0
1979-07-20 05:33:46.100 ,2,1,1.,24.0,0.,24.0,1.,24.0,0.,24.0
1979-07-20 05:34:10.090 ,2,0,0.,24.0,0.,24.0,0.,24.0,0.,24.0
1979-07-20 05:34:34.090 ,1,1,1.,24.0,0.,24.0,0.,24.0,0.,24.0